Regional Weather Roundup
Issued by NWS Goodland, KS

Home | Current Version | Previous Version | Graphics & Text | Print | Product List | Glossary On
Versions: 1 2 3 4 5 6 7 8 9 10 11 12 13 14 15 16 17 18 19 20 21 22 23 24 25 26 27 28 29 30 31 32 33 34 35 36 37 38 39 40 41 42 43 44 45 46 47 48 49 50
000
ASUS43 KGLD 271108
RWRGLD

GOODLAND FORECAST AREA HOURLY WEATHER ROUNDUP
NATIONAL WEATHER SERVICE GOODLAND KS
500 AM MDT THU APR 27 2017

...OFFICIAL OBSERVATIONS...

CITY           SKY/WX    TMP DP  RH WIND       PRES   REMARKS
GOODLAND KS    PTCLDY    37  30  75 S8        29.61F
HILL CITY KS   CLEAR     28  26  92 CALM      29.70S
IMPERIAL NEB   CLOUDY    34  29  82 E8        29.63F
MCCOOK NEB     CLOUDY    30  28  92 E6        29.66F
AKRON CO       CLOUDY    38  34  85 S6        29.59F
BURLINGTON CO  NOT AVBL
LIMON CO       CLOUDY    34  33  96 SE3       29.61F
$$

...UNOFFICIAL OBSERVATIONS...

CITY           SKY/WX    TMP DP  RH WIND       PRES   REMARKS
LENORA KS        N/A     31  32 100 MISG        N/A
NORTON KS      PTCLDY    30  25  80 CALM      29.69R
SHARON SPRINGS   N/A     38  31  77 S12         N/A
TRENTON NEB      N/A     30  32 100 SE5         N/A
KIT CARSON CO    N/A     39  34  81 MISG        N/A
YUMA CO        FAIR      37  36  93 S6        29.60F
$$




USA.gov is the U.S. government's official web portal to all federal, state and local government web resources and services.